User: anonymous   Login
Location: Glencliff
(36.1226°N, 86.7183°W)
Time: 23:44:23
(UTC+00:00)
Language:

Unknown - Orbit

View from above orbital plane
View from above orbital plane
View from above satellite
View from above satellite

Ground track
Ground track

The orbit data is extracted from the following two-line orbital elements,

1 44291U 19029BJ  19293.33323772  .00001387  00000-0  11454-3 0  9992
2 44291  53.0068 222.6854 0001722 102.1283 257.9898 15.05504691 23696
Epoch (UTC): 20 October 2019 07:59:51
Eccentricity: 0.0001722
inclination: 53.0068°
perigee height: 549 km
apogee height: 551 km
right ascension of ascending node: 222.6854°
argument of perigee: 102.1283°
revolutions per day: 15.05504691
mean anomaly at epoch: 257.9898°
orbit number at epoch: 2369

The dashed part of the orbit path shows where the satellite is in the earth's shadow,  

DLR